Retour au catalogue

STARLINK-4112

ActifCommunicationsVLEO
NORAD 52861·PAYLOAD·🇺🇸 United States

Lancé Jun 17, 2022 depuis Cape Canaveral Space Force Station

Loading…

Prochains Passages (prochaines 24 heures)

TLE

FraisSource: CelesTrak SupGP

Époque: Sep 15, 2026, 02:16 UTC

1 52861C 22062AH  26258.09493056 -.00031339  00000+0 -10077-2 0  2588
2 52861  53.1582 238.9705 0001357  89.2391 332.4404 15.31720666    18

Suivez STARLINK-4112 en temps réel avec AllMySat

Download on the App Store